sat.trackr.live / text

‹ back to catalog

STARLINK-36651

NORAD 67840 · 2026-033V

PAYLOAD ACTIVE UNKNOWN

§ Identity

Operator
Country
US
Launch date
2026-02-16
Launch site
AFETR
Launch vehicle
Mass (kg)
RCS (m²)

Purposes: comms

External: N2YO · Heavens-Above · Gunter

§ Orbital elements

Epoch: 2026-05-24T20:44:37.526208Z

Period
94.27 min
Inclination
43.0019°
Eccentricity
0.0001889
Mean motion
15.27587086 rev/d
Perigee alt
481.7 km
Apogee alt
484.3 km
Semi-major
6,861.2 km
B*
4.2414e-4
RAAN
196.8805°
Arg perigee
275.9602°
Mean anomaly
84.1034°
Rev number
1,632

§ Raw data

STARLINK-366511 67840U 26033V   26144.86432322  .00011430  00000+0  42414-3 0  99922 67840  43.0019 196.8805 0001889 275.9602  84.1034 15.27587086 16329

JSON: /api/v1/satellites/67840 · /tle

For live sub-satellite position, see the globe view (requires WebGL).

§ Visibility from observer

Set your observer location to see the next 7 days of passes ≥ 10°. The values pass through the URL so the page stays shareable.

No JS? Fill the form by hand. The geolocation button needs JavaScript.